If you wish to contribute or participate in the discussions about articles you are invited to join SKYbrary as a registered user

 Actions

Nancy-Essey Airport

From SKYbrary Wiki

LFSN
Airport
ICAO: LFSN – IATA: ENC
Summary
Name Nancy-Essey Airport
Region Europe
Territory France FR.gif
Location , Lorraine
Serving Nancy
Elevation 228.905 m
751 ft
751 ft228.905 m
Type medium airport
Coordinates 48° 41' 31.45" N, 6° 13' 49.65" E
Runways
Designator Length Width Surface ROPS
3/21 1400 m4,593.176 ft
40 m131.234 ft
ASP yes/yes


METAR
Observation LFSN 172230Z AUTO 02007KT 340V040 CAVOK 13/06 Q1022
Station Nancy / Essey
Date/Time 17 September 2019 22:30:00
Wind direction 20°
Wind speed 07 kts
Lowest cloud amount clouds and visibility OK
Temperature 13°C
Dew point 6°C
Humidity 62%
QNH 1022 hPa
Weather condition n/a